{"data":{"norad_id":57784,"epoch":"2026-09-20T02:42:07.014816Z","epoch_age_seconds":164762,"freshness":"FRESH","line1":"1 57784U 23134P   26263.11258119 -.00000058  00000+0  74311-5 0  9995","line2":"2 57784  43.0015 176.2831 0001090 270.9558  89.1169 15.27584366169243","mean_motion":15.27584366,"eccentricity":0.000109,"inclination_deg":43.0015,"raan_deg":176.2831,"arg_perigee_deg":270.9558,"mean_anomaly_deg":89.1169,"bstar":7.4311e-6,"rev_number":16924,"period_min":94.266479289171,"perigee_km":482.28815483666,"apogee_km":483.7838905556,"semimajor_km":6861.1730226961,"source":"CELESTRAK","updated_at":"2026-09-21T09:00:33.704787Z"}}